Weather in Nasva

Russia / Pskov Oblast     56°34′36″N   30°09′36″E
temp.,
°C
wind,
m/s
gust,
m/s
humid.,
%
clouds,
%
prec.,
mm/h
press.,
hPa
HPBL,
m
10 april, sat
sat1000:00+5ssw61564100 0.0 1017744
03:00+4ssw61566100 0.0 1016669
06:00+3s61370100 0.0 1016562
09:00+5s61468100 0.0 1016701
12:00+9ssw8135479 0.0 10161507
15:00+11ssw71354100 0.0 10151811
18:00+10ssw7136196 0.2 10161605
21:00+7wnw3690100 1.8 1019624
11 april, sun
sun1100:00+6sw2388100 0.6 1021163
03:00+5nne1292100 1.6 102291
06:00+5ene2495100 1.1 1023320
09:00+4e2494100 1.1 1025290
12:00+5e2392100 0.1 1026286
15:00+6e228997 0.1 1027227
18:00+8ese1285100 0.0 102798
21:00+6ese239395 0.0 102745
12 april, mon
mon1200:00+7sse258932 0.0 1028110
03:00+6s23885 0.0 102843
06:00+5sse348722 0.0 102851
09:00+9sse487139 0.0 1028270
12:00+13sse57530 0.0 1027883
15:00+16sse57420 0.0 10251375
18:00+15sse37480 0.0 1023431
21:00+10sse3768100 0.0 1023114
13 april, tue
tue1300:00+8sse3876100 0.0 1022167
03:00+7sse2686100 0.0 1022135
06:00+6s239216 0.0 102247
09:00+9s24750 0.0 1021268
12:00+14s34535 0.0 1020930
15:00+17s244810 0.0 10191432
18:00+14se467891 0.2 1019333
21:00+11ese2488100 0.3 1019127
14 april, wed
wed1400:00+11e2392100 0.3 101786
03:00+10se2793100 0.3 1016225
06:00+10se4897100 1.5 1015453
09:00+10sse41095100 2.4 1015484
12:00+11sse4992100 0.6 1015524
15:00+12ssw3882100 0.8 1014635
18:00+14s467274 0.3 1013762
21:00+10se248936 0.4 101393